Location: Pebble Beach Sunset Acres
(33.0837°N, 96.4508°W)
Time: 04:24:11
(UTC+00:00)

Sich 1 - Pass Details

Date: 03 July 2022
Orbit: 593 x 623 km, 82.5° (Epoch: 07 August)

Event Time Altitude Azimuth Distance (km) Brightness Sun altitude
Exits shadow 08:48:29 - 126° (SE) 2,142 5.8 -25.0°
Reaches altitude 10° 08:49:19 10° 117° (ESE) 1,948 5.7 -24.9°
Maximum altitude 08:51:29 14° 87° (E) 1,716 5.8 -24.6°
Drops below altitude 10° 08:53:37 10° 56° (ENE) 1,946 6.5 -24.3°
Sets 08:56:48 0° 31° (NNE) 2,847 7.9 -24.0°
